This is the latest recevied weather packets stored in our database for station/object VK3BYD-3. If no packets are shown the sender has not sent any weather packets the latest 10 day(s).
| Time | Temp. | Humidity | Pressure | Rain* | Wind** | Luminosity | Snow |
|---|---|---|---|---|---|---|---|
| 1778148338 | 5.56° C | 91% | 1022.5 hPa | 0 mm | - | - | - |
| 1778147437 | 6.11° C | 89% | 1022.7 hPa | 0 mm | - | - | - |
| 1778146534 | 6.67° C | 87% | 1022.5 hPa | 0 mm | - | - | - |
| 1778145633 | 7.22° C | 87% | 1022.4 hPa | 0 mm | - | - | - |
| 1778144730 | 7.22° C | 87% | 1022.3 hPa | 0 mm | - | - | - |
| 1778143831 | 7.78° C | 87% | 1022.3 hPa | 0 mm | - | - | - |
| 1778142930 | 7.22° C | 87% | 1022.3 hPa | 0 mm | - | - | - |
| 1778142031 | 7.22° C | 87% | 1022.2 hPa | 0 mm | - | - | - |
| 1778141130 | 7.22° C | 85% | 1022.1 hPa | 0 mm | - | - | - |
| 1778140228 | 7.22° C | 84% | 1022 hPa | 0 mm | - | - | - |
| 1778139328 | 7.78° C | 82% | 1021.8 hPa | 0 mm | - | - | - |
| 1778138428 | 8.33° C | 80% | 1021.6 hPa | 0 mm | - | - | - |
| 1778137526 | 8.89° C | 79% | 1021.7 hPa | 0 mm | - | - | - |
| 1778136626 | 9.44° C | 77% | 1021.6 hPa | 0 mm | - | - | - |
| 1778135726 | 9.44° C | 77% | 1021.8 hPa | 0 mm | - | - | - |
| 1778134826 | 9.44° C | 74% | 1021.7 hPa | 0 mm | - | - | - |
| 1778133926 | 10° C | 72% | 1021.7 hPa | 0 mm | - | - | - |
| 1778133026 | 10.56° C | 73% | 1021.6 hPa | 0 mm | - | - | - |
| 1778132126 | 11.11° C | 67% | 1021.5 hPa | 0 mm | - | - | - |
| 1778131226 | 11.67° C | 68% | 1021.3 hPa | 0 mm | - | - | - |
| 1778130326 | 11.11° C | 68% | 1021.2 hPa | 0 mm | - | - | - |
| 1778129426 | 11.67° C | 68% | 1021.2 hPa | 0 mm | - | - | - |
| 1778128525 | 11.11° C | 67% | 1021.4 hPa | 0 mm | - | - | - |
| 1778127626 | 11.67° C | 67% | 1021.3 hPa | 0 mm | - | - | - |
| 1778126726 | 12.78° C | 62% | 1021.3 hPa | 0 mm | - | - | - |
* Rain latest hour (hover to see other rain measurements)
** Current wind speed in m/s (hover to see current wind gust speed)